Location: Unspecified
(51.7359°N, 0.5011°E)
Time: 19:17:55
(UTC+00:00)

CZ-3 Stage 3 - Visible Passes

Search period start: 20 February 2019 00:00
Search period end: 02 March 2019 00:00
Orbit: 446 x 34746 km, 30.4° (Epoch: 19 February)

Date Brightness Start Highest point End Pass type
(mag) Time Alt. Az. Time Alt. Az. Time Alt. Az.
21 Feb 6.8 05:06:06 10° S 05:33:15 38° ESE 13:58:25 10° SSE visible
22 Feb 8.5 12:19:05 10° W 13:54:54 39° WSW 18:34:31 10° W visible
24 Feb 6.8 04:55:52 10° S 05:21:50 38° ESE 13:46:57 10° SSE visible
25 Feb 8.5 12:08:42 10° W 13:42:59 39° WSW 18:20:10 10° W visible
27 Feb 6.7 04:45:37 10° S 05:10:30 38° ESE 13:35:24 10° SSE visible
28 Feb 8.5 11:58:18 10° W 13:31:04 39° WSW 18:05:45 10° W visible
